Total_Precipitation_Accumulation
1.84 1.90 1.84 1.80 1.77 1.75 1.65 1.51 1.46 1.40 1.28 1.20 1.12 1.09 1.10 1.14 1.12 1.16 1.14 1.11 1.08 1.04 1.02 1.03 1.06 1.12 1.20 1.21 1.23 1.38 1.58 1.73 1.75 1.43 1.28 1.36 1.51 1.48 1.48 1.43 1.33 1.29 1.34
1.55 1.68 1.70 1.62 1.50 1.45 1.38 1.31 1.23 1.17 1.13 1.10 1.00 0.93 0.90 0.89 0.88 0.90 0.92 0.95 0.96 0.91 0.94 0.98 1.00 1.03 1.07 1.14 1.19 1.27 1.42 1.63 1.78 1.69 1.45 1.44 1.51 1.54 1.58 1.56 1.37 1.22 1.27
1.34 1.40 1.44 1.38 1.29 1.22 1.19 1.20 1.12 1.06 1.02 0.95 0.91 0.89 0.82 0.80 0.76 0.75 0.78 0.85 0.89 0.86 0.89 0.94 0.99 1.11 1.11 1.13 1.20 1.23 1.32 1.45 1.72 1.79 1.60 1.56 1.62 1.67 1.78 1.65 1.48 1.45 1.22
1.17 1.21 1.23 1.24 1.21 1.14 1.07 1.05 1.03 1.00 0.97 0.92 0.91 0.84 0.78 0.73 0.72 0.72 0.74 0.78 0.81 0.83 0.88 0.93 0.98 1.11 1.19 1.21 1.21 1.23 1.27 1.40 1.59 1.76 1.71 1.67 1.73 1.81 1.85 1.80 1.66 1.51 1.37
1.14 1.10 1.12 1.19 1.20 1.14 1.12 1.09 1.05 0.97 0.91 0.89 0.89 0.83 0.77 0.71 0.67 0.68 0.69 0.72 0.80 0.83 0.82 0.85 0.89 1.00 1.09 1.07 1.00 1.03 1.18 1.40 1.48 1.66 1.71 1.68 1.68 1.81 1.79 1.60 1.54 1.47 1.32
1.19 1.14 1.13 1.14 1.10 1.07 1.07 1.03 1.01 0.95 0.92 0.89 0.86 0.83 0.77 0.65 0.67 0.67 0.66 0.70 0.76 0.80 0.80 0.80 0.77 0.77 0.75 0.77 0.81 0.87 1.00 1.26 1.58 1.78 1.76 1.70 1.59 1.58 1.63 1.58 1.57 1.58 1.51
1.30 1.20 1.15 1.10 1.01 0.95 0.89 0.88 0.93 0.93 0.87 0.82 0.79 0.79 0.75 0.68 0.66 0.61 0.62 0.67 0.76 0.83 0.85 0.84 0.68 0.58 0.67 0.74 0.79 0.83 0.96 1.12 1.41 1.76 1.86 1.65 1.59 1.56 1.62 1.62 1.67 1.73 1.61
1.25 1.14 1.08 1.02 0.96 0.93 0.92 0.90 0.89 0.88 0.82 0.82 0.82 0.80 0.79 0.68 0.64 0.58 0.59 0.65 0.75 0.77 0.77 0.80 0.81 0.75 0.72 0.79 0.85 0.94 1.06 1.19 1.29 1.39 1.69 1.53 1.32 1.33 1.44 1.50 1.60 1.62 1.52
1.21 1.05 0.95 0.89 0.83 0.81 0.85 0.85 0.83 0.81 0.76 0.72 0.71 0.73 0.80 0.78 0.68 0.61 0.57 0.64 0.72 0.72 0.68 0.68 0.68 0.71 0.77 0.90 1.03 1.22 1.34 1.45 1.36 1.50 1.66 1.61 1.46 1.38 1.29 1.37 1.61 1.66 1.59
0.98 0.85 0.81 0.81 0.75 0.73 0.73 0.74 0.72 0.73 0.72 0.67 0.65 0.68 0.73 0.72 0.58 0.50 0.49 0.57 0.69 0.72 0.74 0.73 0.66 0.61 0.73 0.88 1.13 1.41 1.54 1.59 1.45 1.54 1.80 1.85 1.68 1.67 1.64 1.55 1.68 1.73 1.67
0.81 0.73 0.77 0.76 0.68 0.64 0.66 0.67 0.66 0.63 0.65 0.63 0.62 0.65 0.62 0.52 0.45 0.40 0.41 0.45 0.56 0.67 0.73 0.80 0.78 0.69 0.75 0.95 1.17 1.36 1.50 1.51 1.54 1.63 1.65 1.67 1.75 1.79 1.78 1.72 1.68 1.69 1.67
0.75 0.71 0.75 0.75 0.55 0.47 0.57 0.59 0.60 0.65 0.64 0.62 0.63 0.61 0.52 0.47 0.38 0.35 0.37 0.38 0.41 0.57 0.76 0.79 0.80 0.76 0.79 0.99 1.15 1.40 1.60 1.67 1.64 1.67 1.53 1.44 1.40 1.44 1.52 1.50 1.47 1.44 1.40
0.73 0.73 0.71 0.66 0.55 0.49 0.54 0.56 0.60 0.64 0.62 0.55 0.57 0.56 0.48 0.46 0.41 0.35 0.36 0.38 0.40 0.49 0.65 0.71 0.73 0.75 0.89 1.19 1.36 1.52 1.68 1.78 1.80 1.67 1.48 1.37 1.24 1.17 1.17 1.25 1.29 1.27 1.20
0.76 0.75 0.72 0.66 0.56 0.49 0.51 0.48 0.49 0.52 0.52 0.49 0.50 0.51 0.48 0.47 0.42 0.39 0.42 0.46 0.49 0.52 0.63 0.75 0.84 0.89 1.07 1.37 1.58 1.76 1.79 1.69 1.54 1.47 1.39 1.31 1.16 1.10 1.11 1.06 1.09 1.14 1.15
0.72 0.67 0.64 0.56 0.53 0.52 0.46 0.35 0.33 0.34 0.33 0.37 0.43 0.42 0.40 0.38 0.33 0.36 0.39 0.40 0.45 0.48 0.56 0.74 0.92 1.06 1.25 1.46 1.62 1.68 1.65 1.54 1.43 1.25 1.18 1.22 1.20 1.12 1.08 1.00 0.99 1.01 1.10
0.67 0.63 0.56 0.49 0.48 0.45 0.48 0.38 0.29 0.26 0.24 0.23 0.25 0.25 0.26 0.31 0.31 0.34 0.34 0.35 0.39 0.46 0.56 0.76 0.88 0.98 1.18 1.40 1.53 1.50 1.39 1.31 1.22 1.11 1.06 1.03 1.02 0.99 0.98 0.94 0.89 0.88 0.96
0.54 0.53 0.50 0.45 0.43 0.41 0.44 0.47 0.43 0.30 0.23 0.23 0.24 0.24 0.27 0.30 0.28 0.28 0.30 0.34 0.36 0.44 0.56 0.75 0.87 0.98 1.17 1.30 1.34 1.32 1.28 1.19 1.10 1.07 1.04 0.95 0.89 0.87 0.84 0.81 0.80 0.83 0.80
0.35 0.34 0.36 0.39 0.40 0.40 0.37 0.36 0.36 0.38 0.38 0.35 0.30 0.27 0.24 0.23 0.22 0.23 0.26 0.30 0.36 0.41 0.55 0.74 0.88 0.96 1.05 1.12 1.19 1.24 1.21 1.13 1.04 1.03 1.07 1.02 0.93 0.85 0.77 0.74 0.73 0.69 0.69
0.26 0.29 0.28 0.29 0.33 0.34 0.32 0.32 0.32 0.35 0.37 0.38 0.34 0.29 0.25 0.24 0.25 0.29 0.31 0.35 0.42 0.50 0.60 0.74 0.83 0.90 0.92 0.92 0.98 1.04 1.05 1.04 1.00 0.96 0.95 0.96 0.89 0.80 0.70 0.63 0.59 0.48 0.50
0.19 0.17 0.18 0.21 0.24 0.26 0.25 0.26 0.27 0.28 0.31 0.33 0.33 0.30 0.29 0.35 0.39 0.41 0.39 0.36 0.42 0.51 0.60 0.69 0.77 0.82 0.80 0.77 0.76 0.80 0.85 0.88 0.87 0.83 0.80 0.80 0.78 0.69 0.61 0.55 0.53 0.50 0.49
0.14 0.12 0.13 0.14 0.16 0.16 0.15 0.16 0.19 0.21 0.26 0.31 0.29 0.26 0.34 0.40 0.45 0.46 0.45 0.44 0.47 0.51 0.55 0.58 0.62 0.66 0.65 0.63 0.62 0.65 0.70 0.74 0.75 0.75 0.72 0.69 0.65 0.62 0.54 0.49 0.46 0.42 0.41
0.10 0.10 0.12 0.13 0.13 0.12 0.12 0.14 0.17 0.19 0.22 0.26 0.29 0.30 0.38 0.40 0.46 0.49 0.51 0.51 0.51 0.51 0.49 0.50 0.50 0.51 0.52 0.52 0.51 0.53 0.56 0.59 0.64 0.69 0.70 0.65 0.55 0.51 0.45 0.40 0.41 0.40 0.40
0.10 0.11 0.13 0.14 0.13 0.12 0.13 0.15 0.16 0.17 0.19 0.22 0.24 0.29 0.35 0.43 0.50 0.54 0.54 0.53 0.52 0.50 0.45 0.44 0.45 0.47 0.46 0.43 0.43 0.48 0.52 0.54 0.58 0.66 0.70 0.65 0.54 0.47 0.42 0.40 0.42 0.44 0.42
0.10 0.12 0.15 0.15 0.12 0.12 0.12 0.13 0.15 0.16 0.18 0.21 0.23 0.26 0.31 0.40 0.46 0.53 0.57 0.55 0.53 0.51 0.48 0.45 0.44 0.44 0.41 0.37 0.35 0.34 0.35 0.40 0.48 0.57 0.61 0.61 0.50 0.41 0.36 0.36 0.37 0.38 0.39
0.11 0.11 0.11 0.12 0.13 0.14 0.13 0.13 0.14 0.16 0.16 0.16 0.18 0.20 0.24 0.29 0.35 0.44 0.53 0.56 0.58 0.58 0.53 0.50 0.49 0.47 0.40 0.33 0.27 0.25 0.30 0.38 0.45 0.50 0.53 0.50 0.40 0.35 0.33 0.33 0.33 0.33 0.34
0.09 0.10 0.10 0.09 0.09 0.11 0.13 0.13 0.13 0.14 0.15 0.15 0.15 0.16 0.18 0.22 0.26 0.32 0.39 0.46 0.51 0.57 0.60 0.61 0.58 0.47 0.38 0.32 0.29 0.29 0.31 0.31 0.34 0.37 0.41 0.40 0.33 0.32 0.34 0.33 0.28 0.29 0.31